Вернуться в каталог

STARLINK-38117

АктивенСвязьVLEO
NORAD 100006·PAYLOAD·🇺🇸 United States

Запущен Jul 14, 2026 с Vandenberg Space Force Base

Loading…

Ближайшие Пролёты (ближайшие 24 часа)

TLE

СвежийSource: Space-Track

Эпоха: Sep 14, 2026, 06:52 UTC

1 A0006U 26160F   26257.28638267  .00140074  00000-0  82568-3 0  9993
2 A0006  70.0008 212.4993 0003451 270.3883  89.6921 15.77615545 11011

Отслеживайте STARLINK-38117 в реальном времени с AllMySat

Download on the App Store